This is the latest recevied weather packets stored in our database for station/object NK0Z-13. If no packets are shown the sender has not sent any weather packets the latest 10 day(s).
| Time | Temp. | Humidity | Pressure | Rain* | Wind** | Luminosity | Snow |
|---|---|---|---|---|---|---|---|
| 1777356136 | 8.89° C | 78% | 1015.8 hPa | 0 mm | - | 0 W/m² | - |
| 1777355536 | 8.89° C | 81% | 1016.1 hPa | 0 mm | - | 0 W/m² | - |
| 1777354936 | 8.89° C | 81% | 1016.8 hPa | 0 mm | - | 0 W/m² | - |
| 1777354333 | 9.44° C | 81% | 1016.9 hPa | 0 mm | - | 0 W/m² | - |
| 1777353732 | 9.44° C | 80% | 1017 hPa | 0 mm | - | 0 W/m² | - |
| 1777353128 | 10° C | 81% | 1017 hPa | 0 mm | - | 0 W/m² | - |
| 1777352524 | 10° C | 81% | 1016.7 hPa | 0 mm | - | 0 W/m² | - |
| 1777351924 | 10° C | 84% | 1016.6 hPa | 0 mm | - | 0 W/m² | - |
| 1777351325 | 10° C | 83% | 1017.1 hPa | 0 mm | - | 0 W/m² | - |
| 1777350721 | 10° C | 84% | 1016.9 hPa | 0 mm | - | 0 W/m² | - |
| 1777350121 | 10° C | 86% | 1017 hPa | 0 mm | - | 0 W/m² | - |
| 1777349521 | 9.44° C | 89% | 1016.8 hPa | 0 mm | - | 0 W/m² | - |
| 1777348916 | 8.89° C | 89% | 1017 hPa | 0 mm | - | 0 W/m² | - |
| 1777348311 | 8.89° C | 91% | 1017.2 hPa | 0 mm | - | 0 W/m² | - |
| 1777347707 | 8.89° C | 90% | 1016.8 hPa | 0 mm | - | 0 W/m² | - |
| 1777347105 | 9.44° C | 89% | 1017 hPa | 0 mm | - | 0 W/m² | - |
| 1777346504 | 9.44° C | 89% | 1016.8 hPa | 0 mm | - | 0 W/m² | - |
| 1777345898 | 8.89° C | 90% | 1016.6 hPa | 0 mm | - | 0 W/m² | - |
| 1777345298 | 9.44° C | 90% | 1016.3 hPa | 0 mm | - | 0 W/m² | - |
| 1777344697 | 9.44° C | 89% | 1016.1 hPa | 0 mm | - | 0 W/m² | - |
| 1777344091 | 10° C | 85% | 1016.3 hPa | 0 mm | - | 0 W/m² | - |
| 1777343491 | 10.56° C | 84% | 1015.9 hPa | 0 mm | - | 0 W/m² | - |
| 1777342891 | 11.11° C | 83% | 1015.5 hPa | 0 mm | - | 0 W/m² | - |
| 1777342290 | 11.67° C | 82% | 1015.6 hPa | 0 mm | - | 0 W/m² | - |
| 1777341690 | 11.67° C | 80% | 1015.2 hPa | 0 mm | - | 0 W/m² | - |
* Rain latest hour (hover to see other rain measurements)
** Current wind speed in m/s (hover to see current wind gust speed)